Погода в Андрейковичах

Россия / Брянская область     52°23′05″N   33°00′33″E
темп.,
°C
ветер,
м/с
пор.,
м/с
влажн.,
%
обл.,
%
осадки,
мм/ч
давл.,
гПа
погр.,
м
12 мая, ср
ср1200:00+9в410965 0.0 1022284
03:00+6в4119123 0.0 1023336
06:00+5всв411950 0.0 1023322
09:00+11в610745 0.0 1023796
12:00+15в685588 0.0 10211974
15:00+15всв6858100 0.4 10191537
18:00+12всв6874100 0.9 1017733
21:00+9в499130 1.2 1016254
13 мая, чт
чт1300:00+8всв3894100 0.0 1014246
03:00+7в3898100 0.2 1013283
06:00+7вюв589761 1.4 1013379
09:00+8юв6883100 1.4 1014795
12:00+11ююв577516 0.2 1014860
15:00+13ююв577064 0.4 10131012
18:00+14ююв567157 0.1 10131100
21:00+9юв358515 0.2 101462
14 мая, пт
пт1400:00+10вюв41078100 0.0 1014238
03:00+9вюв41080100 0.0 1013210
06:00+9юв31186100 0.1 1013287
09:00+13вюв61188100 1.3 1011501
12:00+18юв6879100 0.1 1010959
15:00+20ююв687049 0.5 10091225
18:00+19ююв477414 1.1 1008690
21:00+14ю35913 2.8 100874
15 мая, сб
сб1500:00+13ю34924 0.2 100848
03:00+12ю349346 0.3 100856
06:00+11ю36965 0.4 1009120
09:00+16ююз35815 0.4 1009491
12:00+19зюз457223 2.4 10091060
15:00+18зюз68682 3.9 10101068
18:00+17юз487163 0.1 1010489
21:00+13ююз410875 0.1 1011191
16 мая, вс
вс1600:00+11ююз38915 0.0 1012134
03:00+10ююз369541 0.0 1013111
06:00+10юз35940 0.0 1014111
09:00+16ююз34735 0.0 1014485
12:00+19ююз346127 0.0 10141231
15:00+21ююз235686 0.0 10131474
18:00+20юв2473100 0.8 1013539
21:00+16юв3484100 0.9 101344